カタログに戻る

ARIANE 44L DEB

運用中HEO
NORAD 33590·DEBRIS·🇫🇷 France

打ち上げ Jan 15, 1991 から Guiana Space Centre

Loading…

次のパス (今後24時間)

TLE

最新Source: Space-Track

元期: Sep 13, 2026, 08:42 UTC

1 33590U 91003T   26256.36316532 -.00000511  00000-0 -57550-2 0  9996
2 33590   7.6345  67.9485 6795099  43.8928 174.0674  2.68404232133013

AllMySatでARIANE 44L DEBをリアルタイム追跡

Download on the App Store